Location: Newark
(45.6833°N, 12.6333°E)
Time: 21:16:15
(UTC+00:00)

N. Korean satellite - Visible Passes

Search period start: 17 November 2019 00:00
Search period end: 27 November 2019 00:00
Orbit: 456 x 506 km, 97.2° (Epoch: 17 November)

Date Brightness Start Highest point End Pass type
(mag) Time Alt. Az. Time Alt. Az. Time Alt. Az.
17 Nov 10.2 03:54:44 10° ENE 03:55:57 11° E 03:57:09 10° ESE visible
17 Nov 6.7 05:26:03 10° N 05:29:42 56° WNW 05:33:18 10° SSW visible
17 Nov 6.6 16:03:14 10° SSE 16:06:51 74° ENE 16:10:32 10° N visible
18 Nov 7.0 05:00:38 10° NNE 05:04:21 70° ESE 05:08:00 10° S visible
18 Nov 9.8 17:12:40 10° SW 17:15:05 17° W 17:17:32 10° NW visible
19 Nov 8.5 04:35:29 10° NNE 04:38:54 33° E 04:42:15 10° SSE visible
19 Nov 8.6 16:46:14 10° SSW 16:49:31 32° W 16:52:53 10° NNW visible
20 Nov 9.7 04:10:47 10° NE 04:13:20 18° E 04:15:52 10° SE visible
20 Nov 7.1 16:20:26 10° S 16:24:03 67° W 16:27:46 10° NNW visible
21 Nov 6.5 05:17:51 10° N 05:21:33 71° WNW 05:25:11 10° SSW visible
21 Nov 10.3 17:31:33 10° WSW 17:32:28 11° W 17:33:23 10° WNW visible
22 Nov 7.4 04:52:30 10° NNE 04:56:10 55° E 04:59:44 10° S visible
22 Nov 9.5 17:04:01 10° SW 17:06:50 21° W 17:09:41 10° NW visible
23 Nov 8.9 04:27:28 10° NE 04:30:40 27° E 04:33:48 10° SSE visible
23 Nov 8.2 16:37:49 10° S 16:41:17 40° W 16:44:49 10° NNW visible
24 Nov 9.9 04:03:01 10° ENE 04:05:04 14° E 04:07:05 10° SE visible
24 Nov 7.0 05:35:11 10° N 05:38:42 42° WNW 05:42:08 10° SW visible
24 Nov 6.7 16:12:11 10° SSE 16:15:51 85° WSW 16:19:35 10° NNW visible
25 Nov 6.5 05:09:39 10° NNE 05:13:21 89° WNW 05:16:58 10° SSW visible
25 Nov 10.0 17:22:17 10° WSW 17:24:10 13° W 17:26:03 10° WNW visible
26 Nov 7.9 04:44:23 10° NNE 04:47:55 43° E 04:51:22 10° S visible
26 Nov 9.1 16:55:26 10° SSW 16:58:33 25° W 17:01:42 10° NW visible
